Notices

What's New in latest Release from April 7th, 2021:

- Updated Glossary, including Speed of Maximum Gust, and Total Hourly Precipitation

- Updated national and regional climate services offices contacts and prices information

- Addition of station inventory lists for 1981-2010, 1971-2000, and 1961-1990 Normals.

If you haven't already, please take our survey and provide feedback about our website: https://eccc.sondage-survey.ca/f/LanguageSelection.aspx?s=442ca660-fcf1-47c0-95a9-59707d6fd709

Hourly Data Report for July 11, 2018

OTTAWA INTL A
ONTARIO
Current Station Operator: NAVCAN

45°19'00.000" N
75°40'00.000" W
114.90 m
6106001
71628
YOW

Download Data

Hourly Data (July 2018)
Hourly Data Report for July 11, 2018
TIME
LST
Temp Definition
°C
Dew Point Definition
°C
Rel Hum Definition
%
Precip. Amount Definition
mm

Wind Dir Definition
10's deg

Wind Spd Definition
km/h
Visibility Definition
km
Stn Press Definition
kPa
Hmdx Definition


Wind Chill Definition


Weather Definition


00:00 18.3 9.2 55   34 12 24.1 100.30     LegendNANA
01:00 17.7 8.7 55   36 14 24.1 100.31     Clear
02:00 16.6 8.1 57   36 14 24.1 100.33     LegendNANA
03:00 15.3 8.1 62   1 12 24.1 100.36     LegendNANA
04:00 13.6 7.9 68   2 13 24.1 100.39     Clear
05:00 14.1 8.6 70   36 12 24.1 100.49     LegendNANA
06:00 16.3 8.2 59   2 10 24.1 100.53     LegendNANA
07:00 18.8 7.0 46   3 10 24.1 100.59     Mainly Clear
08:00 19.8 6.2 40   8 12 24.1 100.62     LegendNANA
09:00 21.5 6.0 36   34 7 24.1 100.63     LegendNANA
10:00 23.2 5.1 31   1 10 24.1 100.62     Mainly Clear
11:00 24.5 5.3 28   2 15 24.1 100.61     LegendNANA
12:00 25.2 6.4 30   32 27 24.1 100.58 25   LegendNANA
13:00 25.5 5.3 27   32 21 24.1 100.56 25   Clear
14:00 25.6 5.8 28   30 15 24.1 100.54 25   LegendNANA
15:00 26.7 6.9 28   34 12 24.1 100.52 27   LegendNANA
16:00 26.5 7.1 29   1 17 24.1 100.52 27   Mainly Clear
17:00 25.6 7.5 31   35 19 24.1 100.54 26   LegendNANA
18:00 25.3 7.7 32   36 14 24.1 100.55 26   LegendNANA
19:00 24.0 8.6 37   6 8 24.1 100.52 25   Clear
20:00 20.7 9.1 47   7 7 24.1 100.54     LegendNANA
21:00 18.4 9.3 55   11 5 24.1 100.62     LegendNANA
22:00 16.1 9.3 64   20 6 24.1 100.64     Clear
23:00 15.5 10.3 71   20 10 24.1 100.66     LegendNANA

Notes on Data Quality.

Legend

  • E = Estimated
  • M = Missing
  • NA = Not Available*
  • [empty] = Indicates an unobserved value
Date modified: